Home   Weather   Fetsund   Past weeks

Flag for Norway Past Weather in Fetsund, Norway — Yesterday and Last 2 Weeks

Now
45 °F

Overcast.


Feels Like: 41 °F
Forecast: 31 / 47 °F
Wind: 7 mph from Northeast

Location: Oslo-Blindern

Current Time: Apr 28, 2017 at 2:42:24 pm

Latest Report: Apr 28, 2017 at 2:00 pm


Visibility: 47 mi

Pressure: 30.01 "Hg

Humidity: 58%

Dew Point: 31 °F

Location of FetsundLocation

Past Weather in Fetsund — Graph

°F

Fetsund Temperature Yesterday

Maximum temperature yesterday: 45 °F (at 3:00 pm)
Minimum temperature yesterday: 30 °F (at 6:00 am)
Average temperature yesterday: 38 °F

High & Low Weather Summary for the Past Weeks

 TemperatureHumidityPressure
High53 °F (Apr 21, 12:00 pm)98% (Apr 13, 9:00 pm)30.55 "Hg (Apr 13, 9:00 pm)
Low24 °F (Apr 15, 6:00 am)20% (Apr 22, 3:00 pm)29.23 "Hg (Apr 24, 6:00 pm)
Average38 °F62%29.88 "Hg
* Reported Apr 13 1:00 pm — Apr 28 1:00 pm, Fetsund, Weather by CustomWeather, © 2017

Note: Actual official high and low records may vary slightly from our data, if they occured in-between our weather recording intervals... More about our weather records

Advertising

Fetsund Weather History for the Previous 24 Hours

Scroll right to see more
 ConditionsComfort  
Time TempWeatherWind HumidityBarometerVisibility
1:00 pm
Fri, Apr 28
44 °FQuite cool.8 mph63%30.01 "Hg25 mi
12:00 pm42 °FQuite cool.9 mph67%30.01 "Hg25 mi
11:00 am38 °FOvercast.8 mph78%30.01 "Hg47 mi
10:00 am35 °FFreezing rain. Cloudy.7 mph86%30.01 "Hg4 mi
9:00 am36 °FLight rain. Cloudy.8 mph70%29.99 "Hg7 mi
8:00 am36 °FLight snow. Overcast.7 mph66%29.98 "Hg47 mi
7:00 am36 °FChilly.6 mph60%29.96 "Hg31 mi
6:00 am35 °FChilly.7 mph61%29.96 "Hg31 mi
5:00 am35 °FChilly.8 mph62%29.93 "Hg31 mi
4:00 am35 °FChilly.7 mph61%29.94 "Hg31 mi
3:00 am34 °FChilly.5 mph67%29.94 "HgN/A
2:00 am34 °FChilly.6 mph80%29.92 "Hg31 mi
1:00 am33 °FChilly.2 mph87%29.91 "Hg31 mi
12:00 am35 °FChilly.3 mph86%29.89 "Hg31 mi
11:00 pm
Thu, Apr 27
35 °FLight rain. Overcast.2 mph86%29.89 "Hg8 mi
10:00 pm36 °FChilly.2 mph83%29.88 "Hg31 mi
9:00 pm38 °FChilly.1 mph77%29.85 "Hg31 mi
8:00 pm40 °FPartly sunny.2 mph71%29.83 "Hg47 mi
7:00 pm43 °FQuite cool.2 mph49%29.81 "Hg31 mi
6:00 pm44 °FQuite cool.2 mph52%29.80 "Hg31 mi
5:00 pm44 °FOvercast.3 mph45%29.80 "Hg47 mi
4:00 pm44 °FQuite cool.2 mph47%29.79 "Hg31 mi
3:00 pm45 °FCool.3 mph49%29.78 "Hg31 mi
2:00 pm43 °FOvercast.5 mph52%29.79 "Hg47 mi
Weather by CustomWeather, © 2017

See weather overviewHow to use our weather pages